Simultaneous Nadir Overpasses (SNOs) Predictions

Prediction of SNOs over PacNW region [( 10.00, 139.50) to ( 22.70, 165.60)] between AQUA and NPP Satellites:

Table of predicted SNOs over PacNW region for the next 30.0 days since TLE Epoch: 6/4/2016
Index Date (AQUA) Time (AQUA) AQUA Lat,Lon Date (NPP) Time (NPP) NPP Lat,Lon Distance(km) Time Diff (sec)
1 06/06/2016 15:09:57 22.63, 159.81 06/06/2016 15:12:03 23.21, 157.23 272.00 126
2 06/09/2016 03:31:47 22.68, 147.49 06/09/2016 03:28:17 22.57, 145.78 175.79 210
3 06/14/2016 15:59:20 22.59, 147.45 06/14/2016 16:02:46 23.22, 144.55 305.42 206
4 06/17/2016 02:42:16 22.69, 159.86 06/17/2016 02:38:46 27.01, 157.33 543.58 210
5 06/22/2016 15:09:48 22.62, 159.83 06/22/2016 15:12:00 23.22, 157.23 274.11 132
6 06/25/2016 03:31:33 22.52, 147.55 06/25/2016 03:28:06 22.17, 145.88 176.13 207
7 06/30/2016
